Location: Czekanka
(50.4925°N, 19.2643°E)
Time: 00:31:24
(UTC+00:00)

CZ-2C R/B - Pass Details

Date: 21 September 2024
Orbit: 703 x 903 km, 98.2° (Epoch: 09 October)

Event Time Altitude Azimuth Distance (km) Brightness Sun altitude
Rises 01:36:02 0° 9° (N) 3,532 7.1 -26.2°
Reaches altitude 10° 01:38:34 10° 3° (N) 2,594 6.2 -25.9°
Enters shadow 01:43:55 41° 296° (WNW) 1,297 3.9 -25.2°
